Orbital Elements at Epoch 2459200.5 (2020-Dec-17.0) TDB
Reference: JPL 21 (heliocentric ecliptic J2000)
Element | Value | Uncertainty (1-sigma) | Units |
e | .192913401262486 | 2.8642e-08 | |
a | 2.315844790158304 | 8.2564e-09 | au |
q | 1.869087294892857 | 6.8063e-08 | au |
i | 3.080541580569617 | 3.6315e-06 | deg |
node | 64.61457461363256 | 6.0421e-05 | deg |
peri | 31.58655543365596 | 6.1422e-05 | deg |
M | 281.2791787859428 | 1.2766e-05 | deg |
tp | 2459481.981408799542 (2021-Sep-24.48140880) | 4.6615e-05 | TDB |
period | 1287.249111544329 3.52 | 6.8839e-06 1.885e-08 | d yr |
n | .2796661475789278 | 1.4956e-09 | deg/d |
Q | 2.762602285423751 | 9.8492e-09 | au |
|
| | Orbit Determination Parameters
Additional Information
|